Location: Austin
(30.3000°N, 97.7500°W)
Time: 23:30:19
(UTC-05:00)

Cosmos 1241 Rocket - Pass Details

Date: 20 April 2024
Orbit: 933 x 1014 km, 65.8° (Epoch: 12 September)

Event Time Altitude Azimuth Distance (km) Brightness Sun altitude
Rises 21:43:56 0° 334° (NNW) 3,638 8.4 -21.2°
Reaches altitude 10° 21:46:28 10° 334° (NNW) 2,701 7.6 -21.7°
Maximum altitude 21:52:48 89° 71° (ENE) 982 4.4 -22.9°
Enters shadow 21:55:12 42° 155° (SSE) 1,374 4.9 -23.3°
